Location: Borovka
(49.7741°N, 14.5280°E)
Time: 17:12:56
(UTC+00:00)

Thor Agena Rocket - Pass Details

Date: 17 November 2025
Orbit: 755 x 802 km, 99.1° (Epoch: 09 December)

Event Time Altitude Azimuth Distance (km) Brightness Sun altitude
Rises 16:14:39 0° 170° (S) 3,298 6.9 -9.5°
Reaches altitude 10° 16:16:59 10° 173° (S) 2,374 6.2 -9.8°
Maximum altitude 16:22:13 68° 256° (WSW) 863 4.0 -10.7°
Drops below altitude 10° 16:27:29 10° 340° (NNW) 2,387 6.1 -11.5°
Sets 16:29:51 0° 343° (NNW) 3,318 6.8 -11.8°
